map of LIR home
LIR - Airport
Location
City:  Liberia, Guanacaste, Costa Rica
Name:Daniel Oduber Quirós International Airport
ICAO:MRLB
IATA:LIR

Details
Type:Airport (Aerodrome, Airfield)
Use:Public/Civil, International (customs port of entry)
Latitude:10°35'35"N (10.593015)
Longitude:85°32'44"W (-85.545544)
Elevation:269 ft (82 m)
Variation:1.19°W (WMM2015v2 magnetic declination)
-0.13° annual change
Runways:1
Longest:9022 × 148 ft (2750 × 45 m)

Time
Time Zone:UTC-6
Local Time:

Weather
METAR:MRLB 041400Z 30006KT CAVOK 26/17 A2986 NOSIG
TAF:MRLB 041100Z 0412/0512 08016KT CAVOK TX35/0420Z TN19/0512Z
TEMPO 0415/0422 08020G30KT

Related Locations
Nearby:
Farthest:CCK: 12248 mi / 19711 km
West Island (Pulau Panjang) [Cocos (Keeling) Islands], CC

Find:

   beyond  
but within

Other Information
Maps:
NOTAMs:
Links:
Sources:

  
  • flag of Costa Rica
  

Airport Diagram

Airport diagram for LIR

Larger airport diagram (OBSOLETE) from NGA

Sectional Chart

Flight Planning
at skyvector.com

Satellite Image

Google Maps Satellite view

 

Copyright © 2004-2019 Karl L. Swartz. All rights reserved.
The Great Circle Mapper name and logo are trademarks of the Great Circle Mapper.
All other trademarks mentioned herein belong to their respective owners.
Please see credits for attibutions and further copyright information.

  Follow gcmap on Facebook Follow gcmap on Twitter GCmap on LinkedIn

hCard Microformat

Geo Microformat